Starlink 32705

operational
NORAD ID: 62479 Int'l Des: 2024-254 Owner: SPXS Country: US Constellation: starlink
LEOCIRCULAR

About Starlink 32705

Description loading...

Live Position

Loading 3D Globe...

Upcoming Passes

Altitude History

Altitude vs Time

uPlot chart will show altitude changes over time

Two-Line Element Set

1 62479U 24254T 25300.77911222 .00021924 00000-0 80368-3 0 9992
2 62479 43.0016 39.3990 0001170 295.4014 64.6716 15.27587014 47259
Epoch: Oct 27, 2025 • Age: 17 hours

Current Status

Altitude 494.6 km
Velocity 7.62 km/s
Sub-Earth Point -41.05°S, 115.54°E
Launch Date Dec 31, 2024
Age 0.8 years
Type internet

Technical Details

Classification Payload
Mass 730.00 kg
Dry Mass 700.00 kg
Total Mass 730.00 kg
Length 0.30 m
Diameter 4.10 m
Span 29.00 m
Shape Box + pan
Manufacturer SPXS
Bus Type Starlink V2M
Phase Status In Orbit
Owner/State SPXS/US

Large Constellations

Loading constellations...